Location: The Saddle
(36.8333°N, 80.3417°W)
Time: 12:58:26
(UTC-05:00)

A-11 Canister half - Pass Details

Date: 16 December 2023
Orbit: 1512 x 1687 km, 47.2° (Epoch: 22 February)

Event Time Altitude Azimuth Distance (km) Brightness Sun altitude
Rises 22:12:33 0° 255° (WSW) 4,663 11.9 -60.0°
Reaches altitude 10° 22:15:37 10° 259° (W) 3,695 11.2 -60.6°
Enters shadow 22:15:59 11° 260° (W) 3,584 11.2 -60.7°
Maximum altitude 22:24:50 59° 339° (NNW) 1,761 - -62.4°
Drops below altitude 10° 22:34:23 10° 58° (ENE) 3,827 - -64.1°
Sets 22:37:39 0° 62° (ENE) 4,838 - -64.7°
